Location: Melbourne
(37.8666°S, 145.1333°E)
Time: 11:43:31
(UTC+11:00)

Iridium 21 - Visible Passes

Search period start: 06 December 2016 00:00
Search period end: 16 December 2016 00:00
Orbit: 776 x 779 km, 86.4° (Epoch: 05 December)

Date Brightness Start Highest point End Pass type
(mag) Time Alt. Az. Time Alt. Az. Time Alt. Az.
06 Dec 8.1 03:34:11 10° ENE 03:37:35 18° E 03:41:01 10° SE visible
06 Dec 5.9 05:12:46 10° NNW 05:17:50 48° W 05:22:57 10° S visible
07 Dec 5.6 04:39:01 10° N 04:44:16 90° E 04:49:36 10° S visible
08 Dec 6.5 04:05:49 10° NNE 04:10:50 47° E 04:15:54 10° SSE visible
09 Dec 7.5 03:33:16 10° NE 03:37:30 26° E 03:41:48 10° SSE visible
09 Dec 6.4 05:13:19 10° NW 05:18:01 33° W 05:22:47 10° SSW visible
10 Dec 8.1 03:01:46 10° ENE 03:04:19 14° ESE 03:06:52 10° SE visible
10 Dec 5.6 04:39:19 11° NNW 04:44:23 62° W 04:49:39 10° S visible
11 Dec 5.8 04:06:14 13° N 04:10:52 70° E 04:16:09 10° S visible
12 Dec 6.8 03:33:08 12° NNE 03:37:28 37° E 03:42:18 10° SSE visible
12 Dec 6.8 05:14:09 10° NW 05:18:16 23° WSW 05:22:26 10° SSW visible
13 Dec 7.7 03:00:27 10° NE 03:04:13 20° E 03:07:59 10° SE visible
13 Dec 6.1 04:40:31 15° NNW 04:44:33 42° W 04:49:34 10° SSW visible
14 Dec 8.3 02:30:16 10° E 02:31:03 10° ESE 02:31:51 10° ESE visible
14 Dec 5.5 04:07:22 21° N 04:10:57 80° W 04:16:17 10° S visible
15 Dec 6.1 03:34:14 22° NNE 03:37:29 54° E 03:42:39 10° SSE visible
15 Dec 7.3 05:15:25 10° WNW 05:18:33 16° WSW 05:21:44 10° SW visible
